| time (UTC) | temp C | wind direction | speed KPH | gust KPH | rain 1hr cm | rain 24hr cm | rain mn cm | humidity % | barometer mb |
| 20260906003045 | 30 | 113 | 0.0 | 0.0 | 0.00 | 0.00 | 0.00 | 83 | 1009.4 |
| 20260906003016 | 30 | 0.0 | 0.0 | 0.00 | 0.00 | 0.00 | 83 | 1012.0 | |
| 20260906001544 | 31 | 113 | 0.0 | 0.0 | 0.00 | 0.00 | 0.00 | 82 | 1009.4 |
| 20260906000044 | 31 | 113 | 0.0 | 0.0 | 0.00 | 0.00 | 0.00 | 78 | 1009.4 |
| 20260906000036 | 31 | 0.0 | 0.0 | 0.00 | 0.00 | 0.00 | 78 | 1012.0 | |
| 20260905234547 | 33 | 113 | 0.0 | 0.0 | 0.00 | 0.00 | 0.00 | 76 | 1009.4 |
| 20260905233043 | 33 | 113 | 0.0 | 0.0 | 0.00 | 0.00 | 0.00 | 73 | 1009.6 |
| 20260905233016 | 33 | 0.0 | 0.0 | 0.00 | 0.00 | 0.00 | 73 | 1012.4 | |
| 20260905231543 | 34 | 113 | 0.0 | 0.0 | 0.00 | 0.00 | 0.00 | 67 | 1009.5 |
| 20260905230044 | 35 | 113 | 0.0 | 0.0 | 0.00 | 0.00 | 0.00 | 64 | 1009.7 |
| 20260905230016 | 35 | 0.0 | 6.4 | 0.00 | 0.00 | 0.00 | 66 | 1012.5 | |
| 20260905224532 | 35 | 113 | 0.0 | 0.0 | 0.00 | 0.00 | 0.00 | 65 | 1009.6 |
| 20260905223027 | 35 | 113 | 0.0 | 0.0 | 0.00 | 0.00 | 0.00 | 63 | 1009.5 |
| 20260905223016 | 35 | 106 | 0.0 | 8.0 | 0.00 | 0.00 | 0.00 | 63 | 1012.3 |
| 20260905221532 | 35 | 113 | 0.0 | 4.8 | 0.00 | 0.00 | 0.00 | 60 | 1009.5 |
| 20260905220023 | 35 | 90 | 1.6 | 4.8 | 0.00 | 0.00 | 0.00 | 59 | 1009.6 |
| 20260905220020 | 35 | 71 | 1.6 | 9.7 | 0.00 | 0.00 | 0.00 | 59 | 1012.5 |
| 20260905214523 | 35 | 74 | 1.6 | 8.0 | 0.00 | 0.00 | 0.00 | 57 | 1009.7 |
| 20260905213020 | 35 | 49 | 3.2 | 8.0 | 0.00 | 0.00 | 0.00 | 58 | 1009.9 |
| 20260905213016 | 35 | 108 | 3.2 | 11.3 | 0.00 | 0.00 | 0.00 | 58 | 1012.8 |
| 20260905211528 | 35 | 79 | 4.8 | 8.0 | 0.00 | 0.00 | 0.00 | 57 | 1009.8 |
| 20260905210017 | 36 | 152 | 1.6 | 4.8 | 0.00 | 0.00 | 0.00 | 57 | 1009.9 |
| 20260905210015 | 36 | 127 | 1.6 | 11.3 | 0.00 | 0.00 | 0.00 | 57 | 1012.8 |
| 20260905204515 | 36 | 81 | 3.2 | 9.7 | 0.00 | 0.00 | 0.00 | 56 | 1010.0 |
| 20260905203016 | 36 | 207 | 1.6 | 8.0 | 0.00 | 0.00 | 0.00 | 56 | 1010.2 |
| 20260905201611 | 36 | 184 | 3.2 | 11.3 | 0.00 | 0.00 | 0.00 | 57 | 1010.4 |
| 20260905200055 | 35 | 210 | 4.8 | 16.1 | 0.00 | 0.00 | 0.00 | 58 | 1013.5 |
| 20260905200012 | 35 | 178 | 4.8 | 11.3 | 0.00 | 0.00 | 0.00 | 58 | 1010.6 |
| 20260905194505 | 35 | 216 | 3.2 | 12.9 | 0.00 | 0.00 | 0.00 | 60 | 1011.0 |
| 20260905193015 | 35 | 213 | 6.4 | 16.1 | 0.00 | 0.00 | 0.00 | 61 | 1014.1 |
| 20260905193003 | 35 | 243 | 3.2 | 12.9 | 0.00 | 0.00 | 0.00 | 61 | 1011.1 |
| 20260905191501 | 35 | 205 | 8.0 | 14.5 | 0.00 | 0.00 | 0.00 | 62 | 1011.5 |
| 20260905190059 | 35 | 202 | 4.8 | 8.0 | 0.00 | 0.00 | 0.00 | 61 | 1011.7 |
| 20260905190015 | 35 | 53 | 3.2 | 16.1 | 0.00 | 0.00 | 0.00 | 58 | 1014.7 |
| 20260905184602 | 35 | 32 | 6.4 | 14.5 | 0.00 | 0.00 | 0.00 | 58 | 1011.7 |
| 20260905183058 | 35 | 125 | 3.2 | 8.0 | 0.00 | 0.00 | 0.00 | 59 | 1011.9 |
| 20260905183020 | 35 | 93 | 3.2 | 14.5 | 0.00 | 0.00 | 0.00 | 58 | 1014.7 |
| 20260905181554 | 35 | 83 | 6.4 | 12.9 | 0.00 | 0.00 | 0.00 | 61 | 1012.0 |
| 20260905180051 | 35 | 67 | 6.4 | 9.7 | 0.00 | 0.00 | 0.00 | 62 | 1012.2 |
| 20260905180015 | 35 | 40 | 4.8 | 14.5 | 0.00 | 0.00 | 0.00 | 61 | 1015.1 |
| 20260905174550 | 35 | 37 | 6.4 | 12.9 | 0.00 | 0.00 | 0.00 | 61 | 1012.2 |
| 20260905173048 | 35 | 346 | 0.0 | 9.7 | 0.00 | 0.00 | 0.00 | 57 | 1012.3 |
| 20260905173015 | 35 | 311 | 3.2 | 9.7 | 0.00 | 0.00 | 0.00 | 58 | 1015.3 |
| 20260905171547 | 35 | 1 | 3.2 | 8.0 | 0.00 | 0.00 | 0.00 | 60 | 1012.4 |
| 20260905170042 | 35 | 279 | 3.2 | 8.0 | 0.00 | 0.00 | 0.00 | 59 | 1012.6 |
| 20260905170015 | 35 | 328 | 1.6 | 11.3 | 0.00 | 0.00 | 0.00 | 59 | 1015.5 |
| 20260905164540 | 35 | 314 | 1.6 | 4.8 | 0.00 | 0.00 | 0.00 | 58 | 1012.8 |
| 20260905163037 | 34 | 303 | 4.8 | 9.7 | 0.00 | 0.00 | 0.00 | 61 | 1012.9 |
| 20260905163015 | 35 | 350 | 1.6 | 11.3 | 0.00 | 0.00 | 0.00 | 60 | 1015.7 |
| 20260905161533 | 34 | 1 | 0.0 | 8.0 | 0.00 | 0.00 | 0.00 | 63 | 1012.9 |
| 20260905160030 | 33 | 352 | 3.2 | 8.0 | 0.00 | 0.00 | 0.00 | 65 | 1013.1 |
| 20260905160015 | 33 | 15 | 3.2 | 8.0 | 0.00 | 0.00 | 0.00 | 65 | 1015.9 |
| 20260905154525 | 33 | 15 | 4.8 | 8.0 | 0.00 | 0.00 | 0.00 | 67 | 1013.2 |
| 20260905153035 | 32 | 127 | 0.0 | 4.8 | 0.00 | 0.00 | 0.00 | 72 | 1016.1 |
| 20260905153024 | 32 | 125 | 0.0 | 3.2 | 0.00 | 0.00 | 0.00 | 72 | 1013.2 |
| 20260905151519 | 32 | 184 | 0.0 | 0.0 | 0.00 | 0.00 | 0.00 | 73 | 1013.3 |
| 20260905150019 | 32 | 0.0 | 0.0 | 0.00 | 0.00 | 0.00 | 77 | 1016.4 | |
| 20260905150015 | 32 | 184 | 0.0 | 0.0 | 0.00 | 0.00 | 0.00 | 77 | 1013.4 |
| 20260905144516 | 31 | 184 | 0.0 | 0.0 | 0.00 | 0.00 | 0.00 | 81 | 1013.3 |
| 20260905143015 | 30 | 0.0 | 0.0 | 0.00 | 0.00 | 0.00 | 83 | 1016.2 | |
| 20260905143009 | 30 | 184 | 0.0 | 0.0 | 0.00 | 0.00 | 0.00 | 83 | 1013.4 |
| 20260905141505 | 29 | 184 | 0.0 | 0.0 | 0.00 | 0.00 | 0.00 | 85 | 1013.4 |
| 20260905140100 | 28 | 184 | 0.0 | 0.0 | 0.00 | 0.00 | 0.00 | 87 | 1013.4 |
| 20260905140015 | 28 | 0.0 | 0.0 | 0.00 | 0.00 | 0.00 | 87 | 1016.4 | |
| 20260905134554 | 27 | 146 | 0.0 | 0.0 | 0.00 | 0.00 | 0.00 | 89 | 1013.4 |
| 20260905133051 | 27 | 146 | 0.0 | 0.0 | 0.00 | 0.00 | 0.00 | 93 | 1013.4 |
| 20260905133015 | 27 | 0.0 | 1.6 | 0.00 | 0.00 | 0.00 | 93 | 1016.1 | |
| 20260905131547 | 26 | 146 | 0.0 | 0.0 | 0.00 | 0.00 | 0.00 | 96 | 1013.4 |
| 20260905130043 | 25 | 146 | 0.0 | 0.0 | 0.00 | 0.00 | 0.00 | 98 | 1013.2 |
| 20260905130017 | 25 | 147 | 0.0 | 1.6 | 0.00 | 0.00 | 0.00 | 98 | 1016.0 |
| 20260905124540 | 24 | 146 | 0.0 | 1.6 | 0.00 | 0.00 | 0.00 | 100 | 1013.2 |
| 20260905123038 | 23 | 141 | 0.0 | 0.0 | 0.00 | 0.00 | 0.00 | 99 | 1013.1 |
| 20260905123017 | 23 | 0.0 | 0.0 | 0.00 | 0.00 | 0.00 | 99 | 1015.8 | |
| 20260905121536 | 23 | 141 | 0.0 | 0.0 | 0.00 | 0.00 | 0.00 | 99 | 1013.0 |
| 20260905120037 | 22 | 0.0 | 0.0 | 0.00 | 0.00 | 0.00 | 99 | 1015.5 | |
| 20260905120033 | 22 | 141 | 0.0 | 0.0 | 0.00 | 0.00 | 0.00 | 99 | 1012.9 |
| 20260905114531 | 22 | 141 | 0.0 | 0.0 | 0.00 | 0.00 | 0.00 | 98 | 1012.7 |
| 20260905113028 | 23 | 141 | 0.0 | 0.0 | 0.00 | 0.00 | 0.00 | 99 | 1012.6 |
| 20260905113021 | 23 | 0.0 | 0.0 | 0.00 | 0.00 | 0.00 | 99 | 1015.2 | |
| 20260905111531 | 22 | 141 | 0.0 | 0.0 | 0.00 | 0.00 | 0.00 | 99 | 1012.6 |
| 20260905110026 | 22 | 141 | 0.0 | 0.0 | 0.00 | 0.00 | 0.00 | 98 | 1012.5 |
| 20260905110016 | 22 | 0.0 | 0.0 | 0.00 | 0.00 | 0.00 | 98 | 1015.1 | |
| 20260905104525 | 22 | 141 | 0.0 | 0.0 | 0.00 | 0.00 | 0.00 | 98 | 1012.4 |
| 20260905103032 | 23 | 141 | 0.0 | 0.0 | 0.00 | 0.00 | 0.00 | 98 | 1012.5 |
| 20260905103016 | 23 | 0.0 | 0.0 | 0.00 | 0.00 | 0.00 | 98 | 1015.2 | |
| 20260905101522 | 23 | 141 | 0.0 | 0.0 | 0.00 | 0.00 | 0.00 | 98 | 1012.4 |
| 20260905100021 | 22 | 141 | 0.0 | 0.0 | 0.00 | 0.00 | 0.00 | 98 | 1012.2 |
| 20260905100016 | 22 | 0.0 | 0.0 | 0.00 | 0.00 | 0.00 | 98 | 1015.0 | |
| 20260905094519 | 23 | 141 | 0.0 | 0.0 | 0.00 | 0.00 | 0.00 | 98 | 1012.2 |
| 20260905093018 | 23 | 141 | 0.0 | 0.0 | 0.00 | 0.00 | 0.00 | 98 | 1012.1 |
| 20260905091517 | 23 | 141 | 0.0 | 0.0 | 0.00 | 0.00 | 0.00 | 98 | 1012.1 |
| 20260905090016 | 23 | 0.0 | 0.0 | 0.00 | 0.00 | 0.00 | 98 | 1014.9 | |
| 20260905090014 | 23 | 141 | 0.0 | 0.0 | 0.00 | 0.00 | 0.00 | 98 | 1012.1 |
| 20260905084513 | 23 | 141 | 0.0 | 0.0 | 0.00 | 0.00 | 0.00 | 98 | 1012.1 |
| 20260905083017 | 23 | 0.0 | 0.0 | 0.00 | 0.00 | 0.00 | 97 | 1014.9 | |
| 20260905083013 | 23 | 141 | 0.0 | 0.0 | 0.00 | 0.00 | 0.00 | 97 | 1012.1 |
| 20260905081512 | 23 | 141 | 0.0 | 0.0 | 0.00 | 0.00 | 0.00 | 98 | 1012.2 |
| 20260905080021 | 23 | 0.0 | 0.0 | 0.00 | 0.00 | 0.00 | 97 | 1014.9 | |
| 20260905080017 | 23 | 141 | 0.0 | 0.0 | 0.00 | 0.00 | 0.00 | 97 | 1012.2 |
| 20260905074508 | 23 | 141 | 0.0 | 0.0 | 0.00 | 0.00 | 0.00 | 97 | 1012.2 |
| 20260905073016 | 23 | 0.0 | 0.0 | 0.00 | 0.00 | 0.00 | 97 | 1014.9 | |
| 20260905073007 | 23 | 141 | 0.0 | 0.0 | 0.00 | 0.00 | 0.00 | 97 | 1012.2 |
| 20260905071506 | 23 | 141 | 0.0 | 0.0 | 0.00 | 0.00 | 0.00 | 97 | 1012.2 |
| 20260905070016 | 23 | 0.0 | 0.0 | 0.00 | 0.00 | 0.00 | 97 | 1014.9 | |
| 20260905070005 | 23 | 141 | 0.0 | 0.0 | 0.00 | 0.00 | 0.00 | 97 | 1012.1 |
| 20260905064504 | 24 | 141 | 0.0 | 0.0 | 0.00 | 0.00 | 0.00 | 96 | 1012.3 |
| 20260905063036 | 24 | 0.0 | 4.8 | 0.00 | 0.00 | 0.00 | 96 | 1015.2 | |
| 20260905063002 | 24 | 141 | 0.0 | 0.0 | 0.00 | 0.00 | 0.00 | 96 | 1012.3 |
| 20260905061613 | 25 | 141 | 0.0 | 0.0 | 0.00 | 0.00 | 0.00 | 96 | 1012.3 |
| 20260905060100 | 25 | 141 | 0.0 | 0.0 | 0.00 | 0.00 | 0.00 | 96 | 1012.4 |
| 20260905060016 | 25 | 143 | 0.0 | 4.8 | 0.00 | 0.00 | 0.00 | 96 | 1015.4 |
| 20260905054556 | 25 | 141 | 0.0 | 0.0 | 0.00 | 0.00 | 0.00 | 96 | 1012.4 |
| 20260905053055 | 25 | 141 | 0.0 | 1.6 | 0.00 | 0.00 | 0.00 | 95 | 1012.4 |
| 20260905053016 | 25 | 142 | 0.0 | 3.2 | 0.00 | 0.00 | 0.00 | 95 | 1015.2 |
| 20260905051600 | 25 | 141 | 0.0 | 1.6 | 0.00 | 0.00 | 0.00 | 95 | 1012.5 |
| 20260905050051 | 25 | 141 | 0.0 | 1.6 | 0.00 | 0.00 | 0.00 | 96 | 1012.5 |
| 20260905050017 | 25 | 0.0 | 11.3 | 0.00 | 0.00 | 0.00 | 96 | 1015.4 | |
| 20260905044549 | 25 | 141 | 0.0 | 0.0 | 0.00 | 0.00 | 0.00 | 95 | 1012.5 |
| 20260905043057 | 25 | 141 | 0.0 | 1.6 | 0.00 | 0.00 | 0.00 | 96 | 1012.7 |
| 20260905043021 | 25 | 133 | 0.0 | 11.3 | 0.00 | 0.00 | 0.00 | 96 | 1015.7 |
| 20260905041549 | 25 | 141 | 3.2 | 9.7 | 0.00 | 0.00 | 0.00 | 95 | 1012.7 |
| 20260905040056 | 25 | 71 | 0.0 | 0.0 | 0.00 | 0.00 | 0.00 | 95 | 1012.7 |
| 20260905040016 | 25 | 76 | 0.0 | 3.2 | 0.00 | 0.00 | 0.00 | 95 | 1015.5 |
| 20260905034548 | 25 | 71 | 0.0 | 1.6 | 0.00 | 0.00 | 0.00 | 95 | 1012.9 |
| 20260905033051 | 25 | 71 | 0.0 | 0.0 | 0.00 | 0.00 | 0.00 | 94 | 1012.9 |
| 20260905031551 | 25 | 71 | 0.0 | 0.0 | 0.00 | 0.00 | 0.00 | 94 | 1013.0 |
| 20260905030055 | 26 | 71 | 0.0 | 0.0 | 0.00 | 0.00 | 0.00 | 94 | 1013.0 |
| 20260905030016 | 26 | 0.0 | 3.2 | 0.00 | 0.00 | 0.00 | 94 | 1015.8 | |
| 20260905024546 | 26 | 71 | 0.0 | 0.0 | 0.00 | 0.00 | 0.00 | 94 | 1012.9 |
| 20260905023046 | 26 | 71 | 0.0 | 3.2 | 0.00 | 0.00 | 0.00 | 93 | 1012.7 |
| 20260905023016 | 26 | 76 | 0.0 | 3.2 | 0.00 | 0.00 | 0.00 | 93 | 1015.7 |
| 20260905021545 | 26 | 71 | 0.0 | 1.6 | 0.00 | 0.00 | 0.00 | 92 | 1012.8 |
| 20260905020049 | 27 | 71 | 0.0 | 1.6 | 0.00 | 0.00 | 0.00 | 92 | 1012.7 |
| 20260905020016 | 27 | 76 | 0.0 | 1.6 | 0.00 | 0.00 | 0.00 | 92 | 1015.5 |
| 20260905014543 | 27 | 71 | 0.0 | 0.0 | 0.00 | 0.00 | 0.00 | 91 | 1012.7 |
| 20260905013049 | 27 | 71 | 0.0 | 0.0 | 0.00 | 0.00 | 0.00 | 90 | 1012.6 |
| 20260905013015 | 27 | 0.0 | 0.0 | 0.00 | 0.00 | 0.00 | 90 | 1015.3 | |
| 20260905011622 | 27 | 71 | 0.0 | 0.0 | 0.00 | 0.00 | 0.00 | 89 | 1012.4 |
| 20260905010041 | 28 | 71 | 0.0 | 0.0 | 0.00 | 0.00 | 0.00 | 88 | 1012.3 |
| 20260905004542 | 28 | 71 | 0.0 | 0.0 | 0.00 | 0.00 | 0.00 | 87 | 1012.1 |